Powrót do katalogu

CZ-6A DEB

AktywnyPO
NORAD 60636·DEBRIS·🇨🇳 China

Wystrzelony Aug 6, 2024 z Taiyuan Satellite Launch Center

Loading…

Następne Przeloty (najbliższe 24 godziny)

TLE

ŚwieżeSource: Space-Track

Epoka: Sep 14, 2026, 11:31 UTC

1 60636U 24140AM  26257.47998357  .00000441  00000-0  20192-3 0  9992
2 60636  88.9904 264.3014 0047319 256.1390 103.4533 14.19225519108772

Śledź CZ-6A DEB w czasie rzeczywistym z AllMySat

Download on the App Store